SCP
0 0 0 0 0 0 0 0 0 0 0 0 0 0 0 0 0 0 0 0 0 -0 -0 -0 -0 -0 -0 -0 -0 -0 0 0 0 0 0 0 0 0 0 -0 0 0 -0
0 1 1 0 0 0 0 0 0 0 0 0 0 0 0 0 0 0 0 0 0 0 -0 0 -0 -0 -0 -0 -0 -0 0 0 0 0 0 -0 -0 -0 0 0 0 -0 0
0 0 1 0 0 0 0 0 0 0 0 0 0 0 0 0 0 0 0 0 0 0 0 -0 0 -0 -0 -0 -0 -0 -0 -0 -0 0 0 -0 -0 0 -0 0 0 0 0
0 0 0 0 0 0 0 0 0 0 0 0 0 0 0 0 0 0 0 0 0 0 0 -0 -0 -0 -0 -0 -0 -0 -0 -0 -0 -0 -0 0 0 0 0 -0 0 0 -0
0 0 0 0 0 0 0 0 0 0 0 0 0 0 0 0 0 0 0 0 0 0 0 0 0 0 0 -0 -0 -0 -0 -0 -0 -0 -0 0 0 0 0 0 0 -0 0
0 0 0 0 0 0 0 0 0 0 0 0 0 0 0 0 0 0 0 0 0 0 0 0 0 0 0 0 0 -0 -0 -0 -0 -0 -0 -0 -0 0 0 0 0 0 -0
0 0 0 0 0 0 0 0 0 0 0 0 0 0 0 0 0 0 0 0 0 0 0 0 0 0 0 0 0 0 -0 -0 -0 -0 -0 -0 -0 -0 0 -0 0 0 -0
0 0 0 0 0 0 0 0 0 0 0 0 0 0 0 0 0 0 0 0 0 0 0 0 0 0 0 0 0 0 -0 -0 -0 -0 -0 -0 -0 -0 -0 -0 -0 0 -0
0 0 0 0 0 0 0 0 0 0 0 0 0 0 0 0 0 0 0 0 0 0 0 0 0 0 0 0 0 0 0 0 -0 -0 -0 -0 -0 -0 -0 -0 -0 -0 -0
0 0 0 0 0 0 0 0 0 0 0 0 0 0 0 0 0 0 0 0 0 0 0 0 0 0 0 0 0 0 0 0 -0 -0 -0 -0 -0 -0 -0 -0 -0 -0 -0
0 0 0 0 0 0 0 0 0 0 0 0 0 0 0 0 0 0 0 0 0 0 0 0 0 0 0 0 0 0 0 -0 0 -0 -0 -0 -0 -0 -0 -0 -0 -0 -0
0 0 0 0 0 0 0 0 0 0 0 0 0 0 0 0 0 0 0 0 0 0 0 0 0 0 0 0 0 0 -0 0 -0 0 -0 -0 -0 -0 -0 -0 -0 -0 -0
0 0 0 0 0 0 0 0 0 0 0 0 0 0 0 0 0 0 0 0 0 0 0 0 0 0 0 0 0 0 0 0 -0 -0 -0 -0 -0 0 0 -0 -0 -0 -0
0 0 0 0 0 0 0 0 0 0 0 0 0 0 0 0 0 0 0 0 0 0 0 0 0 0 0 0 0 0 0 -0 -0 -0 -0 -0 0 0 0 0 0 -0 -0
0 0 0 0 0 0 0 0 0 0 0 0 0 0 0 0 0 0 0 0 0 0 0 0 0 0 0 0 0 0 0 -0 -0 -0 -0 0 0 0 0 0 0 0 0
0 0 0 0 0 0 0 0 0 0 0 0 0 0 0 0 0 0 0 0 0 0 0 0 0 0 0 0 0 0 0 0 -0 -0 -0 0 0 0 0 0 0 0 0
0 0 0 0 0 0 0 0 0 0 0 0 0 0 0 0 0 0 0 0 0 0 0 0 0 0 0 0 0 0 0 0 0 -0 -0 0 0 0 0 0 0 0 0
0 0 0 0 0 0 0 0 0 0 0 0 0 0 0 0 0 0 0 0 0 0 0 0 0 0 0 0 0 0 0 0 0 0 0 0 0 0 0 0 0 0 0
0 0 0 0 0 0 0 0 0 0 0 0 0 0 0 0 0 0 0 0 0 0 0 0 0 0 0 0 0 0 0 0 0 0 0 0 0 0 0 0 0 0 0
0 0 0 0 0 0 0 0 0 0 0 0 0 0 0 0 0 0 0 0 0 0 0 0 0 0 0 0 0 0 0 0 0 0 0 0 0 0 0 0 0 0 0
0 0 0 0 0 0 0 0 0 0 0 0 0 0 0 0 0 0 0 0 0 0 0 0 0 0 0 0 0 0 0 0 0 0 0 0 0 0 -0 -0 -0 0 0
0 0 0 0 0 0 0 0 0 0 0 0 0 0 0 0 0 0 0 0 0 0 0 0 0 0 0 0 0 0 0 0 0 0 0 0 0 0 0 0 0 0 0
0 0 0 0 0 0 0 0 0 0 0 0 0 0 0 0 0 0 0 0 0 0 0 0 0 0 0 0 0 0 0 0 0 0 0 0 0 0 0 0 0 0 0
0 0 0 0 0 0 0 0 0 0 0 0 0 0 0 0 0 0 0 0 0 0 0 0 0 0 0 0 0 0 0 0 0 0 0 0 0 0 0 0 0 0 0
0 0 0 0 0 0 0 0 0 0 0 0 0 0 0 0 0 0 0 0 0 0 0 0 0 0 0 0 0 0 0 0 0 0 0 0 0 0 0 0 0 0 0
0 0 0 0 0 0 0 0 0 0 0 0 0 0 0 0 0 0 0 0 0 0 0 0 0 0 0 0 0 0 0 0 0 0 0 0 0 0 0 0 0 0 0
Wind_Speed_500mb
66 77 83 79 77 72 67 67 67 63 55 50 44 33 25 19 22 35 31 21 30 26 22 34 26 28 25 27 24 35 33 33 26 18 14 14 14 18 15 18 29 33 29
78 91 92 90 87 79 75 72 73 67 59 54 46 35 27 22 24 34 34 30 27 30 21 32 28 25 17 16 25 34 36 36 26 16 9 7 6 10 16 25 27 33 28
79 95 94 97 101 89 83 81 79 70 65 54 49 41 33 24 25 34 35 31 27 32 26 30 23 34 31 24 17 31 37 35 30 15 7 8 10 14 20 27 34 33 28
79 97 91 103 113 92 93 92 87 79 70 61 53 44 38 30 24 29 34 32 36 34 34 34 31 29 25 27 17 29 35 30 29 19 11 6 21 28 35 26 30 27 20
87 95 104 84 100 92 95 95 94 87 77 69 59 51 43 33 22 26 32 30 35 25 22 30 28 31 26 25 17 25 29 28 31 23 20 26 26 25 28 34 29 34 31
63 103 101 109 86 89 95 98 98 89 80 74 63 56 47 36 30 33 36 35 31 18 13 19 31 25 20 13 25 16 27 25 28 27 30 31 25 21 22 25 21 25 36
74 87 110 107 95 101 104 98 105 97 84 75 76 65 53 45 38 41 42 43 33 24 13 9 37 31 22 15 29 25 17 19 27 25 32 35 29 30 31 16 21 36 31
78 80 112 110 108 99 103 108 113 102 92 86 87 79 59 52 49 49 50 47 35 29 20 10 37 32 29 21 20 33 26 22 20 17 29 32 26 28 35 27 22 29 30
82 78 107 111 118 112 110 115 121 115 108 96 94 82 50 34 67 56 61 53 45 39 30 22 37 38 36 24 22 27 29 27 27 22 23 26 25 22 26 27 24 23 25
70 83 92 125 115 121 109 122 127 120 114 109 95 81 83 61 67 45 64 60 52 49 41 31 36 48 41 31 27 25 21 27 28 27 27 26 28 24 22 25 22 23 22
73 84 69 134 125 116 118 135 133 124 119 113 112 102 79 63 73 55 57 70 65 53 45 38 35 54 52 41 36 30 20 22 27 32 27 30 25 25 25 23 22 22 22
55 81 67 120 126 119 131 140 131 125 120 117 110 110 101 87 80 77 51 79 77 66 56 47 43 58 47 53 45 39 31 26 29 31 27 27 27 25 26 27 25 21 22
44 54 65 98 120 112 127 135 132 123 121 123 122 112 105 96 81 74 65 65 79 75 66 57 54 60 53 54 52 49 41 32 31 33 31 23 24 28 27 25 25 24 21
47 61 54 30 82 114 126 134 137 129 122 119 126 118 110 103 97 82 70 62 56 64 72 65 62 67 65 59 51 51 46 42 38 35 31 32 30 26 26 27 25 24 22
51 60 59 72 37 73 113 130 129 134 127 122 119 119 116 111 104 92 79 61 50 50 76 74 63 72 70 66 57 54 51 47 47 42 40 37 39 35 32 27 27 26 24
47 66 84 71 72 46 89 121 129 133 111 125 122 120 110 114 108 98 94 83 62 51 48 74 78 72 73 69 63 60 54 52 52 52 44 49 50 47 40 36 33 31 28
49 55 70 77 68 47 98 117 131 121 107 110 125 119 115 113 112 106 98 88 76 64 50 45 68 76 69 73 68 65 59 57 56 55 54 52 43 48 45 42 40 37 35
39 59 57 60 78 71 60 104 120 124 122 111 119 119 116 115 110 109 103 95 86 76 64 60 49 72 77 71 70 68 63 62 60 58 57 56 51 47 46 45 44 43 42
29 44 60 60 60 62 65 69 99 121 115 122 121 123 117 116 113 112 111 104 95 82 70 65 60 54 69 69 78 73 69 67 64 61 60 58 55 53 51 50 48 48 47
25 38 56 45 59 63 59 61 89 120 120 116 123 125 119 113 109 110 108 105 98 91 76 71 66 63 58 77 71 79 81 75 71 68 66 64 61 60 57 55 54 53 51
13 22 37 45 50 43 67 72 99 113 124 114 119 121 117 109 101 100 99 102 98 94 85 77 72 66 67 69 91 82 84 73 76 73 69 68 70 69 64 62 60 58 55
12 10 17 37 35 44 56 79 96 105 108 102 108 116 112 106 99 97 91 92 97 99 94 86 79 77 73 73 72 87 80 85 83 79 74 77 75 73 68 65 62 57 53
24 16 14 21 32 25 51 59 77 91 101 103 105 111 115 105 96 96 90 90 90 94 96 91 88 83 77 75 77 76 86 82 88 79 77 84 81 80 72 67 63 59 55
32 24 19 10 15 19 50 63 54 75 80 97 91 82 82 94 103 98 93 93 94 95 92 96 89 80 75 70 74 70 77 76 81 83 79 83 81 80 72 69 65 63 61
38 33 29 24 17 5 21 57 58 55 75 72 77 65 67 82 81 93 97 102 101 100 94 91 91 83 76 71 64 69 70 81 85 86 85 78 80 71 75 72 69 68 67
40 32 32 30 27 20 19 15 58 60 69 69 55 81 87 91 96 84 99 108 110 108 97 96 90 83 77 74 71 72 73 74 81 82 84 82 78 71 74 72 71 71 71
Wind_Direction_500mb
201 218 213 209 205 202 199 196 198 196 192 196 193 203 204 200 183 173 171 176 160 169 143 132 133 134 139 148 138 155 144 142 143 136 120 111 91 84 120 122 129 112 105
210 218 220 214 210 204 202 196 198 198 199 201 196 193 205 199 187 188 178 165 171 152 144 135 135 124 131 112 159 152 151 145 140 145 147 137 97 100 109 119 128 112 116
209 215 223 219 213 204 203 196 196 197 198 201 201 192 206 191 190 202 201 170 172 150 155 141 148 143 140 132 130 146 157 153 150 142 121 118 122 135 112 106 119 131 130
198 218 216 219 222 203 204 196 195 195 197 200 201 195 200 198 173 171 170 164 165 165 160 156 148 156 159 161 151 132 142 158 156 157 130 82 109 95 113 106 116 135 131
208 214 211 203 204 201 201 197 194 197 196 195 199 198 195 192 189 173 175 167 162 162 160 171 174 178 165 156 154 159 152 148 157 149 130 96 95 97 102 116 117 114 99
203 213 219 222 209 208 199 195 193 196 198 195 195 195 184 194 196 191 189 186 183 178 163 193 180 181 174 165 156 161 166 157 154 153 131 122 120 118 98 109 106 126 107
214 217 213 213 205 203 201 198 194 194 197 197 190 187 181 188 193 199 202 197 196 201 199 172 183 188 180 171 169 165 153 157 176 173 172 154 144 135 119 125 104 115 113
230 200 214 219 223 211 201 199 196 192 199 201 195 184 176 188 193 203 206 203 210 218 216 203 185 191 188 185 187 153 171 166 156 171 177 174 154 153 149 140 144 141 136
226 211 211 221 216 215 204 202 199 196 197 200 203 187 169 187 189 200 202 208 210 215 228 221 193 190 197 188 180 171 181 190 166 168 155 162 157 156 159 152 158 139 157
224 214 209 210 217 216 203 208 202 200 200 198 200 200 203 194 179 189 202 210 215 225 234 223 209 202 194 192 194 186 194 187 173 170 166 164 166 156 154 173 157 149 144
220 221 209 215 214 211 209 209 203 200 203 201 203 197 200 197 196 193 195 206 212 219 222 230 221 206 210 198 202 202 194 174 167 182 190 169 166 165 162 157 154 151 145
218 224 228 203 205 207 203 208 204 199 204 205 205 200 203 199 201 202 198 205 212 216 217 224 222 210 206 200 199 205 202 183 183 176 176 179 172 173 166 167 163 152 145
210 207 230 202 210 213 205 206 206 202 207 206 208 209 210 213 212 208 212 211 206 213 218 224 218 208 204 204 199 202 200 197 189 189 184 203 189 184 181 174 168 165 160
198 201 218 218 197 212 206 203 205 207 210 210 212 215 215 216 220 217 221 213 204 213 218 222 214 213 204 208 201 200 204 205 199 196 187 193 212 208 197 189 185 180 177
198 197 220 224 220 209 197 207 206 207 208 211 214 217 221 220 220 222 223 223 225 207 218 219 214 210 208 208 206 207 210 210 208 206 196 199 206 210 211 208 204 201 198
207 204 211 229 222 224 204 209 208 211 205 212 217 219 222 221 221 224 224 228 237 239 237 227 219 215 211 210 209 212 213 214 214 212 207 203 207 215 218 219 216 212 213
207 202 201 208 212 209 208 206 205 212 203 208 216 220 221 222 221 222 225 228 234 236 242 241 228 222 217 215 211 212 213 215 215 215 215 217 217 213 219 222 222 221 221
205 205 199 200 216 217 212 204 213 213 210 209 217 219 219 222 222 224 228 230 234 239 242 239 230 223 220 216 215 215 215 215 217 217 218 219 222 219 220 222 223 225 227
208 200 202 207 209 212 220 229 219 213 216 216 218 222 221 223 224 225 227 231 236 239 238 237 234 228 225 217 217 217 220 221 221 220 222 223 225 225 224 225 227 229 230
197 197 202 202 200 202 227 227 223 216 213 216 221 225 226 226 226 226 228 231 234 234 232 231 232 230 224 220 219 217 218 219 221 222 222 224 226 227 227 227 228 231 233
167 191 198 200 194 203 211 229 210 206 212 214 221 226 227 229 230 232 231 231 231 229 229 226 228 226 221 219 218 216 220 221 224 223 224 225 226 226 226 227 229 230 232
77 170 177 194 198 187 188 195 207 215 217 221 221 226 228 231 233 235 234 234 231 226 225 223 224 226 226 224 224 221 219 220 223 225 224 228 230 230 230 230 230 232 233
55 78 133 164 193 174 187 182 194 205 217 220 230 229 228 230 233 232 234 234 234 233 232 228 227 228 227 225 225 225 223 225 228 227 224 231 230 232 231 233 233 234 233
45 48 61 105 168 202 191 196 197 201 207 225 230 231 243 241 238 232 231 230 231 231 232 232 234 238 238 235 233 234 229 228 232 234 230 234 237 236 236 236 234 235 236
39 36 30 27 31 345 239 210 210 209 201 205 223 227 247 239 238 241 232 230 229 231 232 234 236 238 240 240 238 231 228 226 230 233 234 236 242 241 241 241 239 238 239
42 37 35 30 16 11 354 248 220 219 221 219 217 231 238 235 243 245 234 233 230 230 229 230 229 232 235 235 234 233 232 228 228 233 235 234 239 242 246 244 240 239 240
Wind_Speed_850mb
66 77 83 79 77 72 67 67 67 63 55 50 44 33 25 19 22 35 31 21 30 26 22 34 26 28 25 27 24 35 33 33 26 18 14 14 14 18 15 18 29 33 29
78 91 92 90 87 79 75 72 73 67 59 54 46 35 27 22 24 34 34 30 27 30 21 32 28 25 17 16 25 34 36 36 26 16 9 7 6 10 16 25 27 33 28
79 95 94 97 101 89 83 81 79 70 65 54 49 41 33 24 25 34 35 31 27 32 26 30 23 34 31 24 17 31 37 35 30 15 7 8 10 14 20 27 34 33 28
79 97 91 103 113 92 93 92 87 79 70 61 53 44 38 30 24 29 34 32 36 34 34 34 31 29 25 27 17 29 35 30 29 19 11 6 21 28 35 26 30 27 20
87 95 104 84 100 92 95 95 94 87 77 69 59 51 43 33 22 26 32 30 35 25 22 30 28 31 26 25 17 25 29 28 31 23 20 26 26 25 28 34 29 34 31
63 103 101 109 86 89 95 98 98 89 80 74 63 56 47 36 30 33 36 35 31 18 13 19 31 25 20 13 25 16 27 25 28 27 30 31 25 21 22 25 21 25 36
74 87 110 107 95 101 104 98 105 97 84 75 76 65 53 45 38 41 42 43 33 24 13 9 37 31 22 15 29 25 17 19 27 25 32 35 29 30 31 16 21 36 31
78 80 112 110 108 99 103 108 113 102 92 86 87 79 59 52 49 49 50 47 35 29 20 10 37 32 29 21 20 33 26 22 20 17 29 32 26 28 35 27 22 29 30
82 78 107 111 118 112 110 115 121 115 108 96 94 82 50 34 67 56 61 53 45 39 30 22 37 38 36 24 22 27 29 27 27 22 23 26 25 22 26 27 24 23 25
70 83 92 125 115 121 109 122 127 120 114 109 95 81 83 61 67 45 64 60 52 49 41 31 36 48 41 31 27 25 21 27 28 27 27 26 28 24 22 25 22 23 22
73 84 69 134 125 116 118 135 133 124 119 113 112 102 79 63 73 55 57 70 65 53 45 38 35 54 52 41 36 30 20 22 27 32 27 30 25 25 25 23 22 22 22
55 81 67 120 126 119 131 140 131 125 120 117 110 110 101 87 80 77 51 79 77 66 56 47 43 58 47 53 45 39 31 26 29 31 27 27 27 25 26 27 25 21 22
44 54 65 98 120 112 127 135 132 123 121 123 122 112 105 96 81 74 65 65 79 75 66 57 54 60 53 54 52 49 41 32 31 33 31 23 24 28 27 25 25 24 21
47 61 54 30 82 114 126 134 137 129 122 119 126 118 110 103 97 82 70 62 56 64 72 65 62 67 65 59 51 51 46 42 38 35 31 32 30 26 26 27 25 24 22
51 60 59 72 37 73 113 130 129 134 127 122 119 119 116 111 104 92 79 61 50 50 76 74 63 72 70 66 57 54 51 47 47 42 40 37 39 35 32 27 27 26 24
47 66 84 71 72 46 89 121 129 133 111 125 122 120 110 114 108 98 94 83 62 51 48 74 78 72 73 69 63 60 54 52 52 52 44 49 50 47 40 36 33 31 28
49 55 70 77 68 47 98 117 131 121 107 110 125 119 115 113 112 106 98 88 76 64 50 45 68 76 69 73 68 65 59 57 56 55 54 52 43 48 45 42 40 37 35
39 59 57 60 78 71 60 104 120 124 122 111 119 119 116 115 110 109 103 95 86 76 64 60 49 72 77 71 70 68 63 62 60 58 57 56 51 47 46 45 44 43 42
29 44 60 60 60 62 65 69 99 121 115 122 121 123 117 116 113 112 111 104 95 82 70 65 60 54 69 69 78 73 69 67 64 61 60 58 55 53 51 50 48 48 47
25 38 56 45 59 63 59 61 89 120 120 116 123 125 119 113 109 110 108 105 98 91 76 71 66 63 58 77 71 79 81 75 71 68 66 64 61 60 57 55 54 53 51
13 22 37 45 50 43 67 72 99 113 124 114 119 121 117 109 101 100 99 102 98 94 85 77 72 66 67 69 91 82 84 73 76 73 69 68 70 69 64 62 60 58 55
12 10 17 37 35 44 56 79 96 105 108 102 108 116 112 106 99 97 91 92 97 99 94 86 79 77 73 73 72 87 80 85 83 79 74 77 75 73 68 65 62 57 53
24 16 14 21 32 25 51 59 77 91 101 103 105 111 115 105 96 96 90 90 90 94 96 91 88 83 77 75 77 76 86 82 88 79 77 84 81 80 72 67 63 59 55
32 24 19 10 15 19 50 63 54 75 80 97 91 82 82 94 103 98 93 93 94 95 92 96 89 80 75 70 74 70 77 76 81 83 79 83 81 80 72 69 65 63 61
38 33 29 24 17 5 21 57 58 55 75 72 77 65 67 82 81 93 97 102 101 100 94 91 91 83 76 71 64 69 70 81 85 86 85 78 80 71 75 72 69 68 67
40 32 32 30 27 20 19 15 58 60 69 69 55 81 87 91 96 84 99 108 110 108 97 96 90 83 77 74 71 72 73 74 81 82 84 82 78 71 74 72 71 71 71
Wind_Direction_850mb
201 218 213 209 205 202 199 196 198 196 192 196 193 203 204 200 183 173 171 176 160 169 143 132 133 134 139 148 138 155 144 142 143 136 120 111 91 84 120 122 129 112 105
210 218 220 214 210 204 202 196 198 198 199 201 196 193 205 199 187 188 178 165 171 152 144 135 135 124 131 112 159 152 151 145 140 145 147 137 97 100 109 119 128 112 116
209 215 223 219 213 204 203 196 196 197 198 201 201 192 206 191 190 202 201 170 172 150 155 141 148 143 140 132 130 146 157 153 150 142 121 118 122 135 112 106 119 131 130
198 218 216 219 222 203 204 196 195 195 197 200 201 195 200 198 173 171 170 164 165 165 160 156 148 156 159 161 151 132 142 158 156 157 130 82 109 95 113 106 116 135 131
208 214 211 203 204 201 201 197 194 197 196 195 199 198 195 192 189 173 175 167 162 162 160 171 174 178 165 156 154 159 152 148 157 149 130 96 95 97 102 116 117 114 99
203 213 219 222 209 208 199 195 193 196 198 195 195 195 184 194 196 191 189 186 183 178 163 193 180 181 174 165 156 161 166 157 154 153 131 122 120 118 98 109 106 126 107
214 217 213 213 205 203 201 198 194 194 197 197 190 187 181 188 193 199 202 197 196 201 199 172 183 188 180 171 169 165 153 157 176 173 172 154 144 135 119 125 104 115 113
230 200 214 219 223 211 201 199 196 192 199 201 195 184 176 188 193 203 206 203 210 218 216 203 185 191 188 185 187 153 171 166 156 171 177 174 154 153 149 140 144 141 136
226 211 211 221 216 215 204 202 199 196 197 200 203 187 169 187 189 200 202 208 210 215 228 221 193 190 197 188 180 171 181 190 166 168 155 162 157 156 159 152 158 139 157
224 214 209 210 217 216 203 208 202 200 200 198 200 200 203 194 179 189 202 210 215 225 234 223 209 202 194 192 194 186 194 187 173 170 166 164 166 156 154 173 157 149 144
220 221 209 215 214 211 209 209 203 200 203 201 203 197 200 197 196 193 195 206 212 219 222 230 221 206 210 198 202 202 194 174 167 182 190 169 166 165 162 157 154 151 145
218 224 228 203 205 207 203 208 204 199 204 205 205 200 203 199 201 202 198 205 212 216 217 224 222 210 206 200 199 205 202 183 183 176 176 179 172 173 166 167 163 152 145
210 207 230 202 210 213 205 206 206 202 207 206 208 209 210 213 212 208 212 211 206 213 218 224 218 208 204 204 199 202 200 197 189 189 184 203 189 184 181 174 168 165 160
198 201 218 218 197 212 206 203 205 207 210 210 212 215 215 216 220 217 221 213 204 213 218 222 214 213 204 208 201 200 204 205 199 196 187 193 212 208 197 189 185 180 177
198 197 220 224 220 209 197 207 206 207 208 211 214 217 221 220 220 222 223 223 225 207 218 219 214 210 208 208 206 207 210 210 208 206 196 199 206 210 211 208 204 201 198
207 204 211 229 222 224 204 209 208 211 205 212 217 219 222 221 221 224 224 228 237 239 237 227 219 215 211 210 209 212 213 214 214 212 207 203 207 215 218 219 216 212 213
207 202 201 208 212 209 208 206 205 212 203 208 216 220 221 222 221 222 225 228 234 236 242 241 228 222 217 215 211 212 213 215 215 215 215 217 217 213 219 222 222 221 221
205 205 199 200 216 217 212 204 213 213 210 209 217 219 219 222 222 224 228 230 234 239 242 239 230 223 220 216 215 215 215 215 217 217 218 219 222 219 220 222 223 225 227
208 200 202 207 209 212 220 229 219 213 216 216 218 222 221 223 224 225 227 231 236 239 238 237 234 228 225 217 217 217 220 221 221 220 222 223 225 225 224 225 227 229 230
197 197 202 202 200 202 227 227 223 216 213 216 221 225 226 226 226 226 228 231 234 234 232 231 232 230 224 220 219 217 218 219 221 222 222 224 226 227 227 227 228 231 233
167 191 198 200 194 203 211 229 210 206 212 214 221 226 227 229 230 232 231 231 231 229 229 226 228 226 221 219 218 216 220 221 224 223 224 225 226 226 226 227 229 230 232
77 170 177 194 198 187 188 195 207 215 217 221 221 226 228 231 233 235 234 234 231 226 225 223 224 226 226 224 224 221 219 220 223 225 224 228 230 230 230 230 230 232 233
55 78 133 164 193 174 187 182 194 205 217 220 230 229 228 230 233 232 234 234 234 233 232 228 227 228 227 225 225 225 223 225 228 227 224 231 230 232 231 233 233 234 233
45 48 61 105 168 202 191 196 197 201 207 225 230 231 243 241 238 232 231 230 231 231 232 232 234 238 238 235 233 234 229 228 232 234 230 234 237 236 236 236 234 235 236
39 36 30 27 31 345 239 210 210 209 201 205 223 227 247 239 238 241 232 230 229 231 232 234 236 238 240 240 238 231 228 226 230 233 234 236 242 241 241 241 239 238 239
42 37 35 30 16 11 354 248 220 219 221 219 217 231 238 235 243 245 234 233 230 230 229 230 229 232 235 235 234 233 232 228 228 233 235 234 239 242 246 244 240 239 240